EW7356 Weather Reports


time (UTC)temp
C
wind
direction
speed
KPH
gust
KPH
rain 1hr
cm
rain 24hr
cm
rain mn
cm
humidity
%
barometer
mb
20260507000532 11 256 6.4 16.1 0.53 1.30 1.30 93 1004.4
20260507000044 11 288 3.2 20.9 0.53 1.30 1.30 93 1004.1
20260506235530 11 331 4.8 20.9 0.51 1.27 1.27 93 1003.9
20260506235030 12 0 6.4 20.9 0.51 1.24 1.24 92 1003.9
20260506234604 12 297 12.9 20.9 0.48 1.22 1.22 92 1003.7
20260506234034 13 307 6.4 19.3 0.43 1.17 1.17 95 1003.7
20260506233531 13 288 1.6 9.7 0.36 1.09 1.09 95 1003.6
20260506233047 13 273 3.2 6.4 0.20 0.94 0.94 95 1003.5
20260506232532 13 238 3.2 6.4 0.05 0.79 0.79 94 1003.4
20260506232030 13 208 1.6 6.4 0.03 0.76 0.76 94 1003.3
20260506231552 13 232 1.6 9.7 0.05 0.76 0.76 94 1003.2
20260506231029 13 231 3.2 12.9 0.05 0.76 0.76 94 1003.3
20260506230533 13 187 4.8 12.9 0.05 0.76 0.76 94 1003.3
20260506230038 13 279 4.8 12.9 0.05 0.76 0.76 94 1003.4
20260506225530 13 205 4.8 16.1 0.05 0.76 0.76 93 1003.5
20260506225032 14 247 6.4 16.1 0.03 0.74 0.74 93 1003.4
20260506224541 14 223 1.6 3.2 0.03 0.74 0.74 94 1003.3
20260506224031 14 223 0.0 3.2 0.03 0.74 0.74 94 1003.3
20260506223532 14 0 0.0 4.8 0.03 0.74 0.74 93 1003.3
20260506223042 14 223 0.0 6.4 0.03 0.74 0.74 93 1003.4
20260506222530 14 217 1.6 8.0 0.03 0.74 0.74 93 1003.3
20260506222030 14 188 1.6 9.7 0.03 0.74 0.74 92 1003.3
20260506221539 14 178 1.6 12.9 0.00 0.71 0.71 92 1003.3
20260506221030 14 222 4.8 12.9 0.00 0.71 0.71 92 1003.3
20260506220530 14 178 4.8 12.9 0.00 0.71 0.71 92 1003.2
20260506220039 14 190 4.8 12.9 0.00 0.71 0.71 92 1003.2
20260506215530 15 177 4.8 14.5 0.00 0.74 0.71 92 1003.2
20260506215030 15 189 6.4 16.1 0.00 0.74 0.71 92 1003.1
20260506214545 15 201 6.4 16.1 0.00 0.74 0.71 92 1003.1
20260506214034 15 167 6.4 14.5 0.00 0.74 0.71 91 1003.2
20260506213533 15 143 6.4 12.9 0.00 0.74 0.71 91 1003.2
20260506213043 15 178 6.4 20.9 0.00 0.74 0.71 91 1003.3
20260506212530 15 239 6.4 20.9 0.00 0.74 0.71 90 1003.2
20260506212031 15 194 9.7 20.9 0.00 0.74 0.71 90 1003.4
20260506211541 15 200 8.0 19.3 0.00 0.74 0.71 91 1003.4
20260506211030 15 175 8.0 20.9 0.00 0.74 0.71 91 1003.4
20260506210531 15 218 6.4 22.5 0.00 0.74 0.71 91 1003.4
20260506210040 15 207 8.0 22.5 0.00 0.74 0.71 91 1003.4
20260506205533 15 165 11.3 22.5 0.00 0.74 0.71 91 1003.4
20260506205030 14 215 11.3 22.5 0.00 0.74 0.71 92 1003.3
20260506204539 15 175 8.0 22.5 0.00 0.74 0.71 92 1003.4
20260506204031 14 181 12.9 20.9 0.00 0.74 0.71 92 1003.5
20260506203532 15 190 6.4 29.0 0.00 0.74 0.71 93 1003.6
20260506203039 14 183 11.3 29.0 0.00 0.74 0.71 92 1003.5
20260506202530 14 205 6.4 12.9 0.00 0.74 0.71 93 1003.5
20260506202030 14 142 4.8 16.1 0.00 0.74 0.71 94 1003.5
20260506201541 14 177 9.7 16.1 0.03 0.74 0.71 94 1003.6
20260506201029 14 170 4.8 19.3 0.08 0.74 0.71 94 1003.7
20260506200530 14 180 8.0 19.3 0.13 0.74 0.71 94 1003.7
20260506200040 14 148 8.0 16.1 0.15 0.74 0.71 94 1003.7
20260506195533 14 119 4.8 14.5 0.18 0.74 0.71 94 1003.7
20260506195032 14 171 4.8 14.5 0.18 0.74 0.71 94 1003.9
20260506194539 14 159 4.8 11.3 0.20 0.74 0.71 94 1004.0
20260506194030 14 138 4.8 11.3 0.23 0.74 0.71 94 1004.0
20260506193529 14 147 3.2 11.3 0.25 0.74 0.71 94 1004.2
20260506193037 14 204 3.2 8.0 0.25 0.74 0.71 94 1004.3
20260506192529 14 160 3.2 9.7 0.25 0.74 0.71 94 1004.2
20260506192034 14 154 1.6 9.7 0.25 0.71 0.69 94 1004.3
20260506191535 14 248 3.2 8.0 0.25 0.71 0.69 94 1004.5
20260506191030 14 206 0.0 8.0 0.23 0.66 0.64 94 1004.5
20260506190530 14 0 1.6 8.0 0.20 0.61 0.58 94 1004.4
20260506190043 14 148 3.2 11.3 0.18 0.58 0.56 94 1004.5
20260506185530 14 195 4.8 11.3 0.18 0.56 0.53 94 1004.6
20260506185029 14 178 4.8 12.9 0.20 0.56 0.53 93 1004.7
20260506184546 14 174 4.8 12.9 0.20 0.53 0.51 93 1004.8
20260506184030 14 219 4.8 12.9 0.23 0.51 0.48 93 1004.8
20260506183530 14 140 6.4 12.9 0.23 0.48 0.46 93 1004.8
20260506183039 15 173 4.8 14.5 0.25 0.48 0.46 93 1004.8
20260506182529 15 167 1.6 16.1 0.28 0.48 0.46 93 1004.6
20260506182029 15 165 6.4 16.1 0.28 0.46 0.43 93 1005.2
20260506181539 15 157 6.4 20.9 0.30 0.46 0.43 92 1005.2
20260506181029 15 177 9.7 20.9 0.30 0.43 0.41 92 1005.4
20260506180529 15 218 3.2 16.1 0.28 0.41 0.38 93 1005.4
20260506180037 14 188 8.0 16.1 0.30 0.41 0.38 92 1005.4
20260506175528 15 209 6.4 16.1 0.28 0.38 0.36 93 1005.7
20260506175028 15 201 3.2 16.1 0.28 0.36 0.33 92 1005.8
20260506174538 15 190 3.2 14.5 0.28 0.33 0.30 93 1005.7
20260506174034 15 182 6.4 14.5 0.23 0.28 0.25 92 1005.8
20260506173530 15 169 6.4 12.9 0.23 0.25 0.23 92 1005.8
20260506173117 15 164 4.8 12.9 0.20 0.23 0.20 92 1005.9
20260506172534 15 134 1.6 8.0 0.18 0.20 0.18 92 1005.9
20260506172030 15 194 3.2 8.0 0.15 0.18 0.15 91 1005.9
20260506171545 15 184 1.6 6.4 0.13 0.15 0.13 91 1005.8
20260506171033 15 162 1.6 6.4 0.10 0.13 0.10 90 1005.8
20260506170529 15 196 1.6 6.4 0.10 0.13 0.10 90 1005.9
20260506170050 15 158 1.6 11.3 0.08 0.10 0.08 89 1005.9
20260506165529 15 188 1.6 12.9 0.05 0.08 0.05 89 1005.8
20260506165030 15 165 1.6 12.9 0.05 0.08 0.05 87 1005.8
20260506164541 15 203 3.2 12.9 0.03 0.05 0.03 86 1005.9
20260506164030 15 186 3.2 14.5 0.03 0.05 0.03 85 1006.0
20260506163535 15 207 4.8 17.7 0.00 0.03 0.00 83 1006.1
20260506163042 16 211 8.0 17.7 0.00 0.03 0.00 82 1006.1
20260506162530 16 192 4.8 19.3 0.00 0.03 0.00 81 1006.0
20260506162033 16 231 6.4 19.3 0.00 0.03 0.00 80 1006.0
20260506161540 16 214 6.4 17.7 0.00 0.03 0.00 80 1006.2
20260506161030 16 189 6.4 30.6 0.00 0.03 0.00 79 1006.2
20260506160530 16 202 12.9 30.6 0.00 0.03 0.00 79 1006.4
20260506160040 16 182 8.0 17.7 0.00 0.03 0.00 79 1006.4
20260506155530 16 177 6.4 20.9 0.00 0.03 0.00 79 1006.3
20260506155032 16 201 9.7 20.9 0.00 0.03 0.00 78 1006.4
20260506154553 16 225 6.4 16.1 0.00 0.03 0.00 80 1006.7
20260506154031 16 232 6.4 22.5 0.00 0.03 0.00 80 1006.7
20260506153533 16 261 9.7 22.5 0.00 0.03 0.00 80 1006.8
20260506153047 16 216 4.8 20.9 0.00 0.03 0.00 80 1007.1
20260506152532 16 209 8.0 20.9 0.00 0.03 0.00 78 1007.2
20260506152032 16 258 11.3 20.9 0.00 0.03 0.00 78 1007.3
20260506151551 16 269 4.8 14.5 0.00 0.03 0.00 79 1007.2
20260506151030 16 271 6.4 14.5 0.00 0.03 0.00 77 1007.3
20260506150533 16 261 4.8 12.9 0.00 0.03 0.00 78 1007.3
20260506150041 16 223 3.2 9.7 0.00 0.03 0.00 77 1007.1
20260506145531 16 228 3.2 9.7 0.00 0.03 0.00 77 1007.0
20260506145032 16 231 3.2 14.5 0.00 0.03 0.00 79 1007.0
20260506144542 16 0 3.2 16.1 0.00 0.03 0.00 78 1007.0
20260506144030 16 179 6.4 16.1 0.00 0.03 0.00 77 1006.9
20260506143530 16 257 6.4 19.3 0.00 0.03 0.00 78 1006.8
20260506143040 16 207 4.8 19.3 0.00 0.03 0.00 77 1006.9
20260506142530 16 215 6.4 16.1 0.00 0.03 0.00 78 1007.0
20260506142029 16 261 6.4 17.7 0.00 0.03 0.00 77 1006.9
20260506141542 16 247 8.0 19.3 0.00 0.03 0.00 78 1006.9
20260506141030 16 237 6.4 19.3 0.00 0.03 0.00 77 1007.1
20260506140530 16 278 4.8 12.9 0.00 0.03 0.00 78 1007.1
20260506140042 16 245 3.2 12.9 0.00 0.03 0.00 81 1007.0
20260506135530 15 258 4.8 12.9 0.00 0.03 0.00 80 1007.1
20260506135029 15 299 3.2 12.9 0.00 0.03 0.00 81 1007.0
20260506134541 15 307 3.2 11.3 0.00 0.03 0.00 81 1007.0
20260506134029 15 265 4.8 11.3 0.00 0.03 0.00 81 1007.0
20260506133529 15 236 3.2 11.3 0.00 0.03 0.00 81 1007.0
20260506133039 15 288 1.6 9.7 0.00 0.03 0.00 82 1007.1
20260506132533 15 257 3.2 11.3 0.00 0.03 0.00 82 1007.2
20260506132032 15 232 4.8 11.3 0.00 0.03 0.00 82 1007.3
20260506131550 14 220 3.2 11.3 0.00 0.03 0.00 82 1007.4
20260506131030 14 278 3.2 11.3 0.00 0.03 0.00 82 1007.6
20260506130529 14 258 1.6 9.7 0.00 0.03 0.00 82 1007.8
20260506130051 14 258 3.2 8.0 0.00 0.03 0.00 82 1007.8
20260506125532 14 242 0.0 3.2 0.00 0.03 0.00 83 1007.8
20260506125033 14 309 0.0 3.2 0.00 0.03 0.00 83 1007.6
20260506124541 14 45 0.0 1.6 0.00 0.03 0.00 82 1007.4
20260506124029 14 0 0.0 1.6 0.00 0.03 0.00 83 1007.4
20260506123529 14 0 0.0 3.2 0.00 0.03 0.00 83 1007.4
20260506123042 14 0 0.0 4.8 0.00 0.03 0.00 83 1007.4
20260506122530 14 45 0.0 4.8 0.00 0.03 0.00 83 1007.1
20260506122030 13 0 0.0 1.6 0.00 0.03 0.00 84 1007.2
20260506121537 13 0 0.0 4.8 0.00 0.03 0.00 84 1007.2
20260506121029 13 0 0.0 4.8 0.00 0.03 0.00 84 1007.3
20260506120534 13 230 1.6 4.8 0.00 0.03 0.00 84 1007.5
20260506120050 13 194 1.6 8.0 0.00 0.03 0.00 84 1007.7
20260506115529 13 0 3.2 8.0 0.00 0.03 0.00 84 1007.6
20260506115028 13 0 3.2 6.4 0.00 0.03 0.00 84 1007.5
20260506114542 13 137 0.0 6.4 0.00 0.03 0.00 85 1007.5
20260506114029 13 0 1.6 6.4 0.00 0.03 0.00 85 1007.5
20260506113529 13 160 1.6 6.4 0.00 0.03 0.00 86 1007.5
20260506113055 12 0 0.0 4.8 0.00 0.03 0.00 86 1007.6
20260506112529 12 62 0.0 3.2 0.00 0.03 0.00 87 1007.7
20260506112032 12 0 0.0 3.2 0.00 0.03 0.00 87 1007.6
20260506111537 12 62 0.0 3.2 0.00 0.03 0.00 88 1007.8
20260506111029 12 0 0.0 3.2 0.00 0.03 0.00 89 1007.7
20260506110531 11 0 0.0 4.8 0.00 0.03 0.00 89 1007.5
20260506110043 11 62 0.0 4.8 0.00 0.03 0.00 89 1007.5
20260506105529 11 61 0.0 4.8 0.00 0.03 0.00 90 1007.6
20260506105031 11 51 1.6 4.8 0.00 0.03 0.00 90 1007.5
20260506104548 11 0 0.0 0.0 0.00 0.03 0.00 89 1007.6
20260506104027 11 0 0.0 0.0 0.00 0.03 0.00 89 1007.7
20260506103527 11 0 0.0 3.2 0.00 0.03 0.00 89 1007.7
20260506103049 11 0 0.0 3.2 0.00 0.03 0.00 88 1007.7
20260506102530 11 46 1.6 3.2 0.00 0.03 0.00 88 1007.7
20260506102030 11 0 0.0 3.2 0.00 0.03 0.00 87 1007.7
20260506101549 11 46 0.0 3.2 0.00 0.03 0.00 88 1007.5
20260506101029 11 0 0.0 3.2 0.00 0.03 0.00 89 1007.7
20260506100529 11 46 0.0 3.2 0.00 0.03 0.00 89 1008.0
20260506100059 11 46 0.0 3.2 0.00 0.03 0.00 89 1007.7
20260506095529 11 46 1.6 3.2 0.00 0.03 0.00 89 1007.5
20260506095028 11 0 0.0 3.2 0.00 0.03 0.00 88 1007.5
20260506094536 11 0 0.0 3.2 0.00 0.03 0.00 87 1007.6
20260506094027 11 46 0.0 1.6 0.00 0.03 0.00 88 1007.5
20260506093526 11 46 0.0 1.6 0.00 0.03 0.00 87 1007.5
20260506093042 11 0 0.0 3.2 0.00 0.03 0.00 87 1007.4
20260506092527 11 0 0.0 4.8 0.00 0.03 0.00 87 1007.3
20260506092030 11 46 1.6 4.8 0.00 0.03 0.00 86 1007.5
20260506091540 11 49 0.0 4.8 0.00 0.03 0.00 85 1007.4
20260506091032 11 0 0.0 0.0 0.00 0.03 0.00 85 1007.6
20260506090530 11 0 0.0 0.0 0.00 0.03 0.00 86 1007.4
20260506090038 11 0 0.0 0.0 0.00 0.03 0.00 87 1007.4
20260506085531 11 0 0.0 0.0 0.00 0.03 0.00 86 1007.6
20260506085029 11 0 0.0 3.2 0.00 0.03 0.00 85 1007.5
20260506084559 11 0 0.0 4.8 0.00 0.03 0.00 84 1007.7
20260506084027 12 169 0.0 6.4 0.00 0.03 0.00 83 1007.5
20260506083529 12 322 0.0 6.4 0.00 0.03 0.00 83 1007.7
20260506083035 12 254 1.6 6.4 0.00 0.03 0.00 83 1007.8
20260506082530 12 0 0.0 3.2 0.00 0.03 0.00 83 1007.8
20260506082033 12 296 0.0 3.2 0.00 0.03 0.00 82 1007.9
20260506081547 12 0 0.0 3.2 0.00 0.03 0.00 81 1008.0
20260506081030 12 276 0.0 4.8 0.00 0.03 0.00 81 1007.9
20260506080530 12 276 0.0 4.8 0.00 0.03 0.00 81 1007.9
20260506073045 13 330 0.0 4.8 0.00 0.03 0.00 78 1007.9
20260506072530 13 0 1.6 4.8 0.00 0.03 0.00 77 1007.8
20260506072029 13 308 0.0 9.7 0.00 0.03 0.00 77 1007.9
20260506071545 14 277 1.6 9.7 0.00 0.03 0.00 77 1007.9
20260506071031 13 292 1.6 6.4 0.00 0.03 0.00 77 1008.0
20260506070532 13 240 1.6 6.4 0.00 0.03 0.00 77 1007.9
20260506062029 15 266 1.6 6.4 0.00 0.03 0.00 75 1007.6
20260506061539 15 302 1.6 11.3 0.00 0.03 0.00 75 1007.6
20260506061029 15 269 4.8 11.3 0.00 0.03 0.00 74 1007.6
20260506060532 15 254 3.2 9.7 0.00 0.03 0.00 74 1007.7
20260506051029 15 284 0.0 4.8 0.00 0.03 0.00 75 1007.8
20260506050530 16 288 1.6 4.8 0.00 0.03 0.00 75 1007.9
20260506045030 16 219 1.6 8.0 0.00 0.03 0.00 74 1007.8
20260506044622 16 0 1.6 9.7 0.00 0.03 0.00 75 1007.9
20260506044031 15 193 3.2 9.7 0.00 0.03 0.00 74 1007.9
20260506043529 15 203 0.0 3.2 0.00 0.03 0.00 76 1007.9
20260506043040 16 0 0.0 3.2 0.00 0.03 0.00 76 1007.9
20260506042530 16 0 0.0 3.2 0.00 0.03 0.00 75 1007.8
20260506042030 16 0 0.0 6.4 0.00 0.03 0.00 75 1007.6
20260506041553 16 203 0.0 11.3 0.00 0.03 0.00 75 1007.7
20260506041030 16 0 1.6 11.3 0.00 0.03 0.00 73 1007.6
20260506040529 16 208 3.2 11.3 0.00 0.03 0.00 74 1007.6
20260506040040 16 194 1.6 4.8 0.00 0.03 0.00 75 1007.5
20260506035530 16 277 0.0 3.2 0.00 0.03 0.03 76 1007.6
20260506035029 16 0 0.0 3.2 0.00 0.03 0.03 77 1007.7
20260506034605 16 0 0.0 3.2 0.00 0.03 0.03 76 1007.6
20260506034029 16 52 0.0 4.8 0.00 0.03 0.03 76 1007.7
20260506033529 16 52 0.0 4.8 0.00 0.03 0.03 76 1007.7
20260506033037 16 0 1.6 4.8 0.00 0.03 0.03 74 1007.7
20260506032529 17 53 1.6 4.8 0.00 0.03 0.03 73 1007.7
20260506032029 17 0 0.0 6.4 0.00 0.03 0.03 73 1007.7
20260506031542 17 0 1.6 6.4 0.00 0.03 0.03 70 1007.5
20260506031032 17 200 3.2 6.4 0.00 0.03 0.03 70 1007.6
20260506030529 17 187 1.6 12.9 0.00 0.03 0.03 71 1007.7
20260506030039 17 169 3.2 12.9 0.00 0.03 0.03 71 1007.7
20260506025533 17 170 1.6 12.9 0.00 0.03 0.03 71 1007.5
20260506025029 17 204 1.6 8.0 0.00 0.03 0.03 70 1007.7
20260506024542 17 205 0.0 8.0 0.00 0.03 0.03 70 1007.8
20260506024030 17 216 1.6 9.7 0.00 0.03 0.03 70 1007.8
20260506023530 17 0 4.8 11.3 0.00 0.03 0.03 70 1007.7
20260506023059 17 217 4.8 14.5 0.00 0.03 0.03 71 1007.7
20260506022529 17 160 4.8 14.5 0.00 0.03 0.03 72 1007.8
20260506022029 16 197 1.6 8.0 0.00 0.03 0.03 72 1007.6
20260506021543 16 162 1.6 8.0 0.00 0.03 0.03 73 1007.5
20260506021029 16 182 3.2 9.7 0.00 0.03 0.03 73 1007.6
20260506020529 16 173 1.6 9.7 0.00 0.03 0.03 74 1007.7
20260506020046 16 175 1.6 9.7 0.00 0.03 0.03 75 1007.7
20260506015530 16 0 3.2 9.7 0.00 0.03 0.03 74 1007.7
20260506015034 16 155 0.0 6.4 0.00 0.03 0.03 73 1007.7
20260506014540 16 0 1.6 6.4 0.00 0.03 0.03 73 1007.5
20260506014029 16 153 0.0 6.4 0.00 0.03 0.03 72 1007.5
20260506013529 16 0 1.6 6.4 0.00 0.03 0.03 73 1007.3
20260506013041 16 0 1.6 4.8 0.00 0.03 0.03 73 1007.4
20260506012529 16 209 0.0 6.4 0.00 0.03 0.03 73 1007.4
20260506012030 16 204 1.6 6.4 0.00 0.03 0.03 73 1007.4
20260506011534 16 138 1.6 6.4 0.00 0.03 0.03 73 1007.4
20260506011029 16 0 1.6 4.8 0.00 0.03 0.03 73 1007.4
20260506010530 16 196 0.0 4.8 0.00 0.03 0.03 73 1007.3
20260506010038 16 0 0.0 6.4 0.00 0.03 0.03 74 1007.5
20260506005528 16 210 1.6 6.4 0.00 0.03 0.03 74 1007.3
20260506005029 16 180 1.6 6.4 0.00 0.03 0.03 74 1007.5
20260506004600 16 252 1.6 9.7 0.00 0.03 0.03 75 1007.4
20260506004030 16 0 3.2 9.7 0.00 0.03 0.03 75 1007.4
20260506003530 16 265 1.6 8.0 0.00 0.03 0.03 75 1007.3
20260506003051 16 255 3.2 9.7 0.00 0.03 0.03 76 1007.3
20260506002529 16 0 3.2 11.3 0.00 0.03 0.03 76 1007.3
20260506002030 16 248 3.2 11.3 0.00 0.03 0.03 76 1007.1
20260506001541 16 277 3.2 9.7 0.00 0.03 0.03 76 1007.2
20260506001030 16 265 1.6 6.4 0.00 0.03 0.03 77 1007.0